Regional Weather Roundup
Issued by NWS

Home | Current Version | Previous Version | Text Only | Print | Product List | Glossary On
Versions: 1 2 3 4 5 6 7 8 9 10 11 12 13 14 15 16 17 18 19 20 21 22 23 24 25 26 27 28 29 30 31 32 33 34 35 36 37 38 39 40 41 42 43 44 45 46 47 48 49 50
000
ASUS44 KLUB 300310
RWRTX
WEST TEXAS WEATHER ROUNDUP
NATIONAL WEATHER SERVICE LUBBOCK TX
1000 PM CDT SUN MAR 29 2015

NOTE: "FAIR" INDICATES FEW OR NO CLOUDS BELOW 12,000 FEET WITH NO
SIGNIFICANT WEATHER AND/OR OBSTRUCTIONS TO VISIBILITY.

TXZ004-006>008-010-012-014-016-OKZ002-300400-
TEXAS PANHANDLE/OKLAHOMA PANHANDLE

CITY           SKY/WX    TMP DP  RH WIND       PRES   REMARKS
AMARILLO       MOCLDY    53  26  35 E8        30.23R
BORGER         PTCLDY    62  24  23 E7        30.21R
CANADIAN       PTCLDY    56  31  37 CALM      30.20R
DALHART        CLOUDY    56  26  31 E8        30.25R
DUMAS          MOCLDY    56  22  26 E8        30.22S
GUYMON         CLOUDY    59  27  29 E7        30.22R
HEREFORD       PTCLDY    52  29  40 CALM      30.25R
PAMPA          PTCLDY    51  24  34 E8        30.23S
PERRYTON       MOCLDY    55  27  34 E3        30.22R
$$

TXZ026-029-035-045-048-300400-
SOUTHERN PANHANDLE/SOUTH PLAINS/ROLLING PLAINS

CITY           SKY/WX    TMP DP  RH WIND       PRES   REMARKS
CHILDRESS      PTCLDY    64  24  21 NE7       30.17R
SEMINOLE       PTCLDY    62  32  32 CALM      30.18R
LUBBOCK        PTCLDY    56  25  30 NE10      30.20R
PLAINVIEW      CLEAR     57  25  29 NE8       30.21R
SNYDER         CLEAR     67  38  33 NE14G20   30.15R
$$

TXZ052-054-060>062-072-078-127-140-154-169-300400-
PERMIAN BASIN/CONCHO VALLEY/BIG COUNTRY/EDWARDS PLATEAU

CITY           SKY/WX    TMP DP  RH WIND       PRES   REMARKS
ABILENE        FAIR      67  50  54 N7        30.12R
BIG SPRING     CLEAR     72  37  28 NE20G25   30.15R
BRADY          CLEAR     75  52  43 SW8       30.07R
BROWNWOOD      PTCLDY    73  50  43 NE8       30.07R
JUNCTION       CLEAR     73  53  49 S9        30.06R
MIDLAND        PTCLDY    71  39  31 E17       30.14R
ODESSA         MOCLDY    68  38  33 E14       30.14R
SAN ANGELO     CLEAR     73  46  38 NE15      30.10R
SONORA         PTCLDY    73  54  49 S7        30.11R
SWEETWATER     CLEAR     67  37  32 N14G20    30.18R
WINK           CLEAR     73  32  22 E18G26    30.09R
$$

TXZ055-058-074-075-080-082-300400-
FAR WEST/SOUTHWEST MOUNTAINS/TRANS PECOS

CITY           SKY/WX    TMP DP  RH WIND       PRES   REMARKS
ALPINE         PTCLDY    60  31  32 W6        30.23R
DRYDEN           N/A     74  53  48 E8        30.03S
EL PASO        CLOUDY    80  12   7 W6        30.11R
FORT STOCKTON  MOCLDY    73  38  27 NE20G30   30.10R
GUADALUPE PASS CLOUDY    66  23  19 NE15      30.24R
MARFA          PTCLDY    61  27  27 CALM      30.22R
PECOS          PTCLDY    73  38  28 NE16      30.07R
PRESIDIO       FAIR      72  29  20 N14       30.05R
$$

TXZ014-016-019-021>030-083-300400
TEXAS TECH WEST TEXAS MESONET/TEXAS PANHANDLE/NORTHERN SOUTH PLAINS

CITY           SKY/WX    TMP DP  RH WIND       PRES   REMARKS
ABERNATHY 5ENE   N/A     53  25  33 NE8       30.21S
AMARILLO 9NNE    N/A     53  28  38 E3        30.23R
AMARILLO 7SSE    N/A     51  27  38 E5        30.24R
AMHERST 1NE      N/A     55  25  31 NE6       30.23R
BOOTLEG 11WNW    N/A     51  25  35 E8        30.29R
CANADIAN 6E      N/A     55  29  38 NE9       30.19R
CAPROCK CYN SP   N/A     62  23  22 N3        30.20R
CHILDRESS 2NNE   N/A     63  24  22 N9        30.16R
CLARENDON 2WSW   N/A     54  24  32 CALM      30.21R
CLAUDE 12SW      N/A     55  26  33 NE10      30.23R
DIMMITT 2NE      N/A     50  26  39 NE7       30.24R
FLOYDADA 2NNE    N/A     53  21  28 N9        30.21R
FRIONA 2NE       N/A     46  26  44 NW2       30.27R
GOODLETT 3W      N/A     60  38  43 NE3       30.14R
HART 3N          N/A     49  25  40 NE9       30.23R
HEREFORD 2NW     N/A     55  23  28 CALM      30.25R
MCLEAN 1E        N/A     59  24  26 NE9       30.20R
MEMPHIS 1NE      N/A     57  21  24 N8        30.18R
MULESHOE 2SSW    N/A     49  28  43 NE1       30.25R
OLTON 6S         N/A     54  24  31 NE6       30.22R
PALO DURO SP     N/A     60  26  27 N1        30.24S
PAMPA 2E         N/A     54  26  33 E9        30.22S
PLAINVIEW 1S     N/A     60  24  25 NE8       30.22R
SILVERTON 7ESE   N/A     56  24  28 NE6       30.21R
TULIA 2ENE       N/A     54  25  33 NE9       30.22S
TURKEY 2WSW      N/A     60  24  24 N7        30.18R
UMBARGER 3NNE    N/A     49  26  40 SE5       30.25R
$$

TXZ033>036-039>041-045>048-300400
TEXAS TECH WEST TEXAS MESONET/SOUTH PLAINS

CITY           SKY/WX    TMP DP  RH WIND       PRES   REMARKS
AIKEN 3WSW       N/A     50  21  32 NE7       30.23R
ANDREWS 2NE      N/A     65  32  28 NE8       30.17R
ANTON 6SSW       N/A     58  23  26 NE10      30.22R
BROWNFIELD 2S    N/A     60  27  28 NE8       30.20R
DENVR CTY 7WNW   N/A     62  26  25 NE12      30.19R
GAIL 2ESE        N/A     62  38  41 NE8       30.15R
LAMESA 2SE       N/A     62  33  32 NE10      30.17R
LEVELLAND 4S     N/A     54  21  27 NE8       30.21R
LUBBOCK 3WNW     N/A     64  22  20 NE7       30.21R
MORTON 1ENE      N/A     54  22  29 NE9       30.22S
ODONNELL 1N      N/A     61  25  25 NE7       30.18R
PLAINS 3N        N/A     60  26  26 NE12      30.20R
REESE CENTER     N/A     57  22  25 NE6       30.21R
SEAGRAVES 1SW    N/A     66  27  23 NE9       30.18R
SEMINOLE 2NNE    N/A     62  30  29 NE8       30.18R
SLATON 2NE       N/A     62  21  21 NE6       30.20R
SNYDER 3E        N/A     66  36  32 NE14      30.14R
SUNDOWN 8SW      N/A     56  25  30 NE10      30.21R
TAHOKA 3NNE      N/A     57  28  31 NE8       30.19R
WOLFFORTH 6SSW   N/A     62  24  23 NE9       30.21R
$$

TXZ031-032-036>038-042>044-300400-
TEXAS TECH WEST TEXAS MESONET/ROLLING PLAINS

CITY           SKY/WX    TMP DP  RH WIND       PRES   REMARKS
ASPERMONT 3NE    N/A     60  36  39 N3        30.14R
FLUVANNA 3WNW    N/A     64  36  35 NE12      30.16R
GRAHAM 5SSW      N/A     64  31  28 NE10      30.17R
GUTHRIE 10WSW    N/A     65  37  36 E7        30.15R
HASKELL 1NW      N/A     56  44  62 N9        30.12R
JAYTON 1SSE      N/A     64  37  36 NE8       30.15R
KNOX CITY 3NW    N/A     62  35  36 N5        30.14R
LK A HENRY 1NW   N/A     64  38  37 E8        30.15R
NORTHFIELD 1S    N/A     63  23  22 NE7       30.17R
ODELL 4ENE       N/A     59  41  51 NE7       30.15R
PADUCAH 10SW     N/A     63  36  36 NE1       30.16R
POST 1NE         N/A     62  31  31 NE5       30.17R
RRING SPRGS 3N   N/A     61  24  24 N6        30.18R
SEYMOUR 3NW      N/A     63  43  46 N10       30.11R
SPUR 1W          N/A     60  34  37 NE5       30.16R
WEINERT 2NNE     N/A     60  44  54 N6        30.13R
WHITE RVR 6NE    N/A     62  26  25 NE6       30.18R
$$

TXZ052-054-060>062-072-078-127-140-154-169-300400-
TEXAS TECH WEST TEXAS MESONET/PERMIAN BASIN/
CONCHO VALLEY/BIG COUNTRY/EDWARDS PLATEAU

CITY           SKY/WX    TMP DP  RH WIND       PRES   REMARKS
COYANOSA 2N      N/A     74  38  27 NE14      30.10R
JUNCTION 1SSW    N/A     71  54  54 S5        30.07R
MERTZON 3NNE     N/A     71  46  40 NE8       30.14R
SAN ANGELO 7NW   N/A     70  43  37 NE2       30.11R
STRLNG CT 4WSW   N/A     69  38  32 NE7       30.14R
ST LAWRNCE 5SW   N/A     69  38  32 NE18      30.13R
SWEETWATR 11SW   N/A     65  40  38 NE17      30.15R
WALL 1E          N/A     68  47  47 NE7       30.12R
$$

TXZ055-058-074-075-080-082-300400-
TEXAS TECH WEST TEXAS MESONET/FAR WEST/SOUTHWEST MOUNTAINS/TRANS PECOS

CITY           SKY/WX    TMP DP  RH WIND       PRES   REMARKS
PRSMN GAP BBNP   N/A     77  47  34 N14       30.07R
$$


USA.gov is the U.S. government's official web portal to all federal, state and local government web resources and services.